星链-4197 (STARLINK-4197 )

导读

STARLINK-4197是美国SpaceX公司星链(Starlink)星座的V1.5批次卫星,于2022年6月17日发射升空,运行在约550公里高度的近地轨道。作为全球卫星互联网项目的组成部分,它搭载相控阵天线与氪离子推进器,具备自主轨道维持和避碰能力,可为偏远地区提供高速低延迟宽带服务,退役后会主动坠入大气层完全烧毁,减少空间碎片隐患。

基本信息
目录编号:
52849
目录名称:
STARLINK-4197
国际标识:
2022-062V
轨道中心:
EARTH
卫星名称:
星链-4197
卫星全名:
星链-4197 (STARLINK-4197 )
卫星状态:
在轨 (已飞行1540 天)
发射日期:
2022-06-17 UTC
国别 :
美国 (US)
星等 :
--
轨道信息
数据来源 国际轨道数据
星历时间: 2026-09-03T22:43:36+0800
21小时前
查看轨道信息
半长轴: 6837.864km
偏心率: 0.0001007
轨道倾角: 53.160°
近地点辐角 73.543°
升交点赤经 296.974°
平近点角 286.568°
近地点: 459.038km
远地点: 460.416km
周期: 93.787分钟
每日圈数: 15.354022
详细信息
固有亮度:
5
最大亮度:
2.5
卫星平台:
Starlink v1.5
覆盖范围:
全球
运营商:
太空探索技术公司
运营商所在国:
美国
制造商(研发单位):
太空探索技术公司
制造商所在国:
美国
使用方式:
暂无
卫星简介
星链(Starlink)计划是由太空探索技术公司(SpaceX)提出的一个巨型低轨卫星互联网星座项目,计划在2019年至2024年间在太空搭建由约1.2万颗卫星组成的“星链”网络,其中1584颗将部署在地球上空550千米处的近地轨道,并从2020年开始工作。该卫星仍在工作。
2D轨道图
3D轨道图
轨道高度分析图
轨道倾角分析图
轨道综合分析图
查看轨道综合分析图
交会数据列表
事件ID 空间交会对象 最接近时刻(TCA) 交会距离 交会风险概率(CRP) 交会风险指数(CRI) 操作
CDM_260906-045904-284105-284921
2026-09-06T
04:59:45+0000
1.271 km
极远距离
1.149752E-5 中风险 0.56
CDM_260828-142905-284906-935921
2026-08-28T
14:29:32+0000
1.447 km
极远距离
4.766703E-6 低风险 0.49
CDM_260905-132505-284906-809021
2026-09-05T
13:25:58+0000
2.303 km
极远距离
1.73457E-6 低风险 0.4
CDM_260830-155705-284906-663721
2026-08-30T
15:57:29+0000
2.467 km
极远距离
1.322425E-6 低风险 0.37
CDM_260905-080905-284906-635321
2026-09-05T
08:09:06+0000
2.828 km
极远距离
1.292304E-6 低风险 0.37
CDM_260906-133205-284906-094221
2026-09-06T
13:32:18+0000
2.917 km
极远距离
9.872583E-7 极低风险 0.35
CDM_260906-031005-284906-490521
2026-09-06T
03:10:42+0000
2.848 km
极远距离
8.70911E-7 极低风险 0.34
CDM_260901-082405-284906-690421
2026-09-01T
08:24:34+0000
2.688 km
极远距离
5.686698E-7 极低风险 0.3